Погода в Хорошем

Россия / Новосибирская область     53°35′16″N   78°29′56″E
темп.,
°C
ветер,
м/с
пор.,
м/с
влажн.,
%
обл.,
%
осадки,
мм/ч
давл.,
гПа
погр.,
м
9 марта, вт
вт901:00−14зюз6139272 0.0 1022272
04:00−15юз5129375 0.0 1024206
07:00−16ююз5129166 0.0 1026212
10:00−15ююз6138676 0.0 1026272
13:00−11ююз7118246 0.0 1026381
16:00−9ююз7118446 0.0 1024415
19:00−11ююз498631 0.0 1023194
22:00−14ю598866 0.0 1023138
10 марта, ср
ср1001:00−15ююз488958 0.0 1021112
04:00−14ююз368957 0.0 102095
07:00−15ю348875 0.0 101927
10:00−12ююв358993 0.0 1017139
13:00−9юв598796 0.0 1014285
16:00−5юв71190100 0.0 1009408
19:000ю81598100 0.4 1004657
22:00+1ююз815100100 3.2 1001560
11 марта, чт
чт1101:00−3зюз111784100 4.1 1002591
04:00−10зюз9179067 0.0 1007546
07:00−11юз6139479 0.1 1011346
10:00−10юз7159196 0.0 1013442
13:00−7юз8138694 0.0 1015656
16:00−6ююз6118417 0.0 1015553
19:00−6ю7168542 0.0 1012642
22:00−4юз111772100 0.3 10101028
12 марта, пт
пт1201:00−10юз71582100 0.3 1013572
04:00−14юз715870 0.0 1016465
07:00−17юз615902 0.0 1017438
10:00−17юз7139190 0.0 1019549
13:00−16юз7118893 0.0 1020545
16:00−15юз698794 0.0 1020641
19:00−17юз479397 0.0 1020146
22:00−19зюз3697100 0.0 1021103
13 марта, сб
сб1301:00−19з3898100 0.3 1021226
04:00−20з4898100 0.1 1022186
07:00−25з479876 0.1 1026118
10:00−26зюз48970 0.0 1029195
13:00−22зюз57954 0.0 1031263
16:00−18юз589017 0.0 1033351
19:00−19ююз48919 0.0 1033198
22:00−21ююз510910 0.0 1034187